Time,TemperatureF,DewpointF,PressureIn,WindDirection,WindDirectionDegrees,WindSpeedMPH,WindSpeedGustMPH,Humidity,HourlyPrecipIn,Conditions,Clouds,dailyrainin,SoftwareType,DateUTC
2013-09-22 00:13:00,50.0,47.0,29.92,NE,55,1.0,4.0,89,0.00,,,0.00,,2013-09-22 05:13:00,
2013-09-22 00:23:00,50.0,47.0,29.92,NE,55,1.0,3.0,90,0.00,,,0.00,,2013-09-22 05:23:00,
2013-09-22 00:53:00,49.0,46.0,29.92,NE,55,2.0,3.0,90,0.00,,,0.00,,2013-09-22 05:53:00,
2013-09-22 01:12:00,49.0,46.0,29.92,NE,55,0.0,2.0,90,0.00,,,0.00,,2013-09-22 06:12:00,
2013-09-22 01:22:00,48.0,45.0,29.92,NE,55,0.0,1.0,90,0.00,,,0.00,,2013-09-22 06:22:00,
2013-09-22 01:52:00,47.0,45.0,29.93,NE,55,0.0,2.0,92,0.00,,,0.00,,2013-09-22 06:52:00,
2013-09-22 02:11:00,47.0,45.0,29.93,NE,55,0.0,1.0,91,0.00,,,0.00,,2013-09-22 07:11:00,
2013-09-22 02:21:00,47.0,45.0,29.93,NE,55,0.0,0.0,91,0.00,,,0.00,,2013-09-22 07:21:00,
2013-09-22 02:42:00,47.0,45.0,29.93,NE,55,0.0,1.0,92,0.00,,,0.00,,2013-09-22 07:42:00,
2013-09-22 02:52:00,48.0,46.0,29.93,NE,55,0.0,1.0,92,0.00,,,0.00,,2013-09-22 07:52:00,
2013-09-22 03:12:00,48.0,45.0,29.93,NE,55,0.0,0.0,90,0.00,,,0.00,,2013-09-22 08:12:00,
2013-09-22 03:22:00,47.0,44.0,29.93,NE,55,0.0,0.0,90,0.00,,,0.00,,2013-09-22 08:22:00,
2013-09-22 03:52:00,46.0,44.0,29.94,NE,55,0.0,1.0,93,0.00,,,0.00,,2013-09-22 08:52:00,
2013-09-22 04:11:00,46.0,44.0,29.94,NE,55,0.0,1.0,94,0.00,,,0.00,,2013-09-22 09:11:00,
2013-09-22 04:22:00,46.0,45.0,29.94,NE,55,0.0,1.0,95,0.00,,,0.00,,2013-09-22 09:22:00,
2013-09-22 04:43:00,46.0,44.0,29.95,NE,55,1.0,2.0,94,0.00,,,0.00,,2013-09-22 09:43:00,
2013-09-22 04:53:00,45.0,43.0,29.95,NE,55,1.0,2.0,93,0.00,,,0.00,,2013-09-22 09:53:00,
2013-09-22 05:12:00,44.0,42.0,29.95,NE,55,0.0,1.0,94,0.00,,,0.00,,2013-09-22 10:12:00,
2013-09-22 05:23:00,44.0,42.0,29.95,NE,55,0.0,0.0,94,0.00,,,0.00,,2013-09-22 10:23:00,
2013-09-22 05:44:00,44.0,43.0,29.95,NE,55,0.0,0.0,95,0.00,,,0.00,,2013-09-22 10:44:00,
2013-09-22 05:53:00,44.0,43.0,29.96,NE,55,0.0,2.0,95,0.00,,,0.00,,2013-09-22 10:53:00,
2013-09-22 06:12:00,44.0,43.0,29.96,NE,55,1.0,2.0,96,0.00,,,0.00,,2013-09-22 11:12:00,
2013-09-22 06:22:00,44.0,43.0,29.96,NE,55,0.0,2.0,95,0.00,,,0.00,,2013-09-22 11:22:00,
2013-09-22 06:42:00,43.0,42.0,29.96,NE,55,1.0,2.0,96,0.00,,,0.00,,2013-09-22 11:42:00,
2013-09-22 06:52:00,43.0,42.0,29.96,NE,55,0.0,0.0,96,0.00,,,0.00,,2013-09-22 11:52:00,
2013-09-22 07:12:00,43.0,42.0,29.97,NE,55,0.0,0.0,96,0.00,,,0.00,,2013-09-22 12:12:00,
2013-09-22 07:22:00,43.0,42.0,29.97,NE,55,0.0,0.0,97,0.00,,,0.00,,2013-09-22 12:22:00,
2013-09-22 07:42:00,44.0,43.0,29.98,NE,55,0.0,2.0,97,0.00,,,0.00,,2013-09-22 12:42:00,
2013-09-22 07:52:00,45.0,44.0,29.98,NE,55,0.0,2.0,97,0.00,,,0.00,,2013-09-22 12:52:00,
2013-09-22 08:12:00,46.0,45.0,29.98,NE,55,0.0,2.0,97,0.00,,,0.00,,2013-09-22 13:12:00,
2013-09-22 08:22:00,47.0,46.0,29.98,NE,55,0.0,2.0,98,0.00,,,0.00,,2013-09-22 13:22:00,
2013-09-22 08:42:00,50.0,49.0,29.99,NE,55,0.0,2.0,98,0.00,,,0.00,,2013-09-22 13:42:00,
2013-09-22 08:52:00,52.0,51.0,29.99,NE,55,1.0,3.0,98,0.00,,,0.00,,2013-09-22 13:52:00,
2013-09-22 09:22:00,55.0,52.0,30.01,NE,55,0.0,1.0,89,0.00,,,0.00,,2013-09-22 14:22:00,
2013-09-22 10:12:00,61.0,52.0,30.01,NNE,18,1.0,5.0,73,0.00,,,0.00,,2013-09-22 15:12:00,
2013-09-22 10:23:00,62.0,51.0,30.01,NE,50,2.0,5.0,67,0.00,,,0.00,,2013-09-22 15:23:00,
2013-09-22 10:44:00,63.0,51.0,30.01,NE,49,2.0,6.0,64,0.00,,,0.00,,2013-09-22 15:44:00,
2013-09-22 10:54:00,64.0,50.0,30.01,East,95,3.0,7.0,60,0.00,,,0.00,,2013-09-22 15:54:00,
2013-09-22 11:13:00,65.0,49.0,30.02,ENE,71,2.0,7.0,57,0.00,,,0.00,,2013-09-22 16:13:00,
2013-09-22 11:24:00,65.0,49.0,30.01,WSW,242,1.0,3.0,57,0.00,,,0.00,,2013-09-22 16:24:00,
2013-09-22 11:54:00,66.0,49.0,30.01,ESE,113,0.0,6.0,54,0.00,,,0.00,,2013-09-22 16:54:00,
2013-09-22 12:12:00,66.0,49.0,30.01,West,280,1.0,3.0,55,0.00,,,0.00,,2013-09-22 17:12:00,
2013-09-22 12:23:00,67.0,49.0,30.01,NNE,26,3.0,7.0,53,0.00,,,0.00,,2013-09-22 17:23:00,
2013-09-22 12:43:00,67.0,49.0,30.01,East,98,2.0,7.0,53,0.00,,,0.00,,2013-09-22 17:43:00,
2013-09-22 12:53:00,68.0,48.0,30.00,North,355,1.0,7.0,49,0.00,,,0.00,,2013-09-22 17:53:00,
2013-09-22 13:13:00,68.0,49.0,29.99,NE,36,0.0,4.0,51,0.00,,,0.00,,2013-09-22 18:13:00,
2013-09-22 13:22:00,69.0,50.0,29.99,East,87,2.0,8.0,50,0.00,,,0.00,,2013-09-22 18:22:00,
2013-09-22 13:42:00,70.0,50.0,29.98,NE,42,3.0,8.0,49,0.00,,,0.00,,2013-09-22 18:42:00,
2013-09-22 13:52:00,70.0,48.0,29.98,ENE,69,2.0,6.0,46,0.00,,,0.00,,2013-09-22 18:52:00,
2013-09-22 14:11:00,70.0,48.0,29.97,East,83,0.0,5.0,46,0.00,,,0.00,,2013-09-22 19:11:00,
2013-09-22 14:22:00,71.0,50.0,29.96,East,91,3.0,8.0,48,0.00,,,0.00,,2013-09-22 19:22:00,
2013-09-22 14:52:00,71.0,49.0,29.96,East,90,2.0,6.0,46,0.00,,,0.00,,2013-09-22 19:52:00,
2013-09-22 15:12:00,71.0,50.0,29.96,NNE,30,4.0,7.0,47,0.00,,,0.00,,2013-09-22 20:12:00,
2013-09-22 15:22:00,72.0,50.0,29.96,NNE,18,3.0,7.0,46,0.00,,,0.00,,2013-09-22 20:22:00,
2013-09-22 15:42:00,72.0,51.0,29.96,NNE,26,2.0,5.0,47,0.00,,,0.00,,2013-09-22 20:42:00,
2013-09-22 15:52:00,72.0,50.0,29.96,ENE,64,1.0,6.0,46,0.00,,,0.00,,2013-09-22 20:52:00,
2013-09-22 16:12:00,72.0,50.0,29.96,East,89,2.0,6.0,46,0.00,,,0.00,,2013-09-22 21:12:00,
2013-09-22 16:23:00,72.0,50.0,29.95,NE,44,3.0,6.0,46,0.00,,,0.00,,2013-09-22 21:23:00,
2013-09-22 16:45:00,72.0,49.0,29.94,NW,321,2.0,5.0,45,0.00,,,0.00,,2013-09-22 21:45:00,
2013-09-22 16:54:00,72.0,51.0,29.94,NNE,18,2.0,5.0,47,0.00,,,0.00,,2013-09-22 21:54:00,
2013-09-22 17:14:00,71.0,50.0,29.94,NE,38,3.0,6.0,47,0.00,,,0.00,,2013-09-22 22:14:00,
2013-09-22 17:24:00,71.0,51.0,29.94,ENE,61,2.0,7.0,49,0.00,,,0.00,,2013-09-22 22:24:00,
2013-09-22 17:53:00,70.0,49.0,29.94,NE,42,3.0,6.0,48,0.00,,,0.00,,2013-09-22 22:53:00,
2013-09-22 18:12:00,70.0,50.0,29.94,ENE,75,2.0,5.0,49,0.00,,,0.00,,2013-09-22 23:12:00,
2013-09-22 18:22:00,69.0,51.0,29.94,NE,55,1.0,4.0,53,0.00,,,0.00,,2013-09-22 23:22:00,
2013-09-22 18:43:00,68.0,51.0,29.94,NE,53,1.0,4.0,55,0.00,,,0.00,,2013-09-22 23:43:00,
2013-09-22 18:52:00,66.0,52.0,29.94,NE,53,0.0,2.0,61,0.00,,,0.00,,2013-09-22 23:52:00,
2013-09-22 19:12:00,63.0,51.0,29.94,NE,53,0.0,2.0,66,0.00,,,0.00,,2013-09-23 00:12:00,
2013-09-22 20:22:00,56.0,50.0,29.96,ENE,68,2.0,5.0,81,0.00,,,0.00,,2013-09-23 01:22:00,
2013-09-22 20:43:00,55.0,50.0,29.97,East,79,2.0,7.0,83,0.00,,,0.00,,2013-09-23 01:43:00,
2013-09-22 20:52:00,55.0,50.0,29.97,East,80,4.0,8.0,84,0.00,,,0.00,,2013-09-23 01:52:00,
2013-09-22 21:11:00,55.0,50.0,29.98,ENE,60,3.0,5.0,83,0.00,,,0.00,,2013-09-23 02:11:00,
2013-09-22 21:22:00,54.0,50.0,29.98,ENE,64,3.0,7.0,86,0.00,,,0.00,,2013-09-23 02:22:00,
2013-09-22 21:42:00,53.0,49.0,29.98,ENE,76,3.0,7.0,86,0.00,,,0.00,,2013-09-23 02:42:00,
2013-09-22 21:52:00,53.0,49.0,29.98,ENE,76,3.0,7.0,86,0.00,,,0.00,,2013-09-23 02:52:00,
2013-09-22 22:12:00,53.0,50.0,29.99,ENE,76,2.0,5.0,88,0.00,,,0.00,,2013-09-23 03:12:00,
2013-09-22 22:22:00,52.0,49.0,29.99,ENE,70,2.0,4.0,89,0.00,,,0.00,,2013-09-23 03:22:00,
2013-09-22 22:44:00,52.0,49.0,29.99,ENE,78,2.0,6.0,89,0.00,,,0.00,,2013-09-23 03:44:00,
2013-09-22 22:54:00,51.0,48.0,29.99,ENE,78,2.0,4.0,90,0.00,,,0.00,,2013-09-23 03:54:00,
2013-09-22 23:14:00,50.0,47.0,30.00,ENE,77,2.0,3.0,91,0.00,,,0.00,,2013-09-23 04:14:00,
2013-09-22 23:24:00,50.0,47.0,30.00,East,81,2.0,4.0,91,0.00,,,0.00,,2013-09-23 04:24:00,
2013-09-22 23:43:00,50.0,47.0,30.00,East,88,2.0,5.0,91,0.00,,,0.00,,2013-09-23 04:43:00,
2013-09-22 23:53:00,50.0,47.0,30.00,East,81,3.0,8.0,91,0.00,,,0.00,,2013-09-23 04:53:00,